Time,TemperatureF,DewpointF,PressureIn,WindDirection,WindDirectionDegrees,WindSpeedMPH,WindSpeedGustMPH,Humidity,HourlyPrecipIn,Conditions,Clouds,dailyrainin,SoftwareType,DateUTC
2013-08-31 08:27:00,74.5,70.7,29.79,WNW,291,0.0,0.0,88,0.00,,FEW070,0.00,VWS V14.01,2013-08-31 13:27:00,
2013-08-31 08:28:00,74.6,70.8,29.79,WNW,291,0.0,0.0,88,0.00,,FEW070,0.00,VWS V14.01,2013-08-31 13:28:00,
2013-08-31 08:33:00,75.3,71.5,29.79,WNW,291,0.0,0.0,88,0.00,,BKN250,0.00,VWS V14.01,2013-08-31 13:33:00,
2013-08-31 08:38:00,76.1,71.6,29.79,WNW,291,0.0,0.0,86,0.00,,BKN250,0.00,VWS V14.01,2013-08-31 13:38:00,
2013-08-31 08:43:00,77.0,72.2,29.80,WNW,291,0.0,0.0,85,0.00,,OVC250,0.00,VWS V14.01,2013-08-31 13:43:00,
2013-08-31 08:48:00,77.7,72.1,29.80,WNW,291,0.0,0.0,83,0.00,,OVC250,0.00,VWS V14.01,2013-08-31 13:48:00,
2013-08-31 08:53:00,78.2,72.3,29.80,WNW,291,0.0,0.0,82,0.00,,OVC250,0.00,VWS V14.01,2013-08-31 13:53:00,
2013-08-31 08:58:00,78.7,72.8,29.80,WNW,291,0.0,0.0,82,0.00,,OVC250,0.00,VWS V14.01,2013-08-31 13:58:00,
2013-08-31 09:03:00,79.1,73.1,29.80,WNW,291,0.0,0.0,82,0.00,,OVC250,0.00,VWS V14.01,2013-08-31 14:03:00,
2013-08-31 09:08:00,79.4,73.1,29.80,WNW,291,0.0,0.0,81,0.00,,OVC250,0.00,VWS V14.01,2013-08-31 14:08:00,
2013-08-31 09:13:00,79.6,73.3,29.80,WNW,291,0.0,0.0,81,0.00,,OVC250,0.00,VWS V14.01,2013-08-31 14:13:00,
2013-08-31 09:18:00,79.6,72.9,29.80,NNE,26,1.0,1.0,80,0.00,,OVC250,0.00,VWS V14.01,2013-08-31 14:18:00,
2013-08-31 09:23:00,79.4,72.7,29.79,ENE,57,0.0,0.0,80,0.00,,OVC250,0.00,VWS V14.01,2013-08-31 14:23:00,
2013-08-31 09:28:00,79.1,72.4,29.79,ENE,57,0.0,0.0,80,0.00,,OVC250,0.00,VWS V14.01,2013-08-31 14:28:00,
2013-08-31 09:33:00,79.0,72.7,29.80,ENE,57,0.0,0.0,81,0.00,,OVC250,0.00,VWS V14.01,2013-08-31 14:33:00,
2013-08-31 09:38:00,79.0,72.7,29.80,ENE,57,0.0,0.0,81,0.00,,OVC250,0.00,VWS V14.01,2013-08-31 14:38:00,
2013-08-31 09:43:00,78.9,72.6,29.80,ENE,57,0.0,0.0,81,0.00,,OVC250,0.00,VWS V14.01,2013-08-31 14:43:00,
2013-08-31 09:49:00,78.8,73.2,29.80,ENE,58,0.0,0.0,83,0.00,,OVC250,0.00,VWS V14.01,2013-08-31 14:49:00,
2013-08-31 09:54:00,78.6,73.0,29.80,ENE,58,0.0,1.0,83,0.00,,OVC250,0.00,VWS V14.01,2013-08-31 14:54:00,
2013-08-31 09:59:00,78.3,73.1,29.80,ENE,58,0.0,0.0,84,0.00,,OVC250,0.00,VWS V14.01,2013-08-31 14:59:00,
2013-08-31 10:04:00,78.2,73.0,29.80,ENE,58,0.0,0.0,84,0.00,,OVC250,0.00,VWS V14.01,2013-08-31 15:04:00,
2013-08-31 10:09:00,78.2,73.3,29.80,ENE,58,0.0,0.0,85,0.00,,OVC250,0.00,VWS V14.01,2013-08-31 15:09:00,
2013-08-31 10:14:00,78.3,73.4,29.80,ENE,58,0.0,0.0,85,0.00,,OVC250,0.00,VWS V14.01,2013-08-31 15:14:00,
2013-08-31 10:19:00,78.2,73.3,29.80,ENE,58,0.0,0.0,85,0.00,,OVC250,0.00,VWS V14.01,2013-08-31 15:19:00,
2013-08-31 10:24:00,78.2,73.3,29.80,ENE,58,0.0,0.0,85,0.00,,OVC250,0.00,VWS V14.01,2013-08-31 15:24:00,
2013-08-31 10:29:00,78.3,73.4,29.80,ENE,58,0.0,0.0,85,0.00,,OVC250,0.00,VWS V14.01,2013-08-31 15:29:00,
2013-08-31 10:34:00,78.2,73.0,29.79,ENE,58,0.0,0.0,84,0.00,,OVC250,0.00,VWS V14.01,2013-08-31 15:34:00,
2013-08-31 10:39:00,78.0,73.1,29.79,ESE,108,1.0,2.0,85,0.00,,OVC250,0.00,VWS V14.01,2013-08-31 15:39:00,
2013-08-31 10:44:00,77.8,73.3,29.79,ESE,115,0.0,2.0,86,0.00,,BKN250,0.00,VWS V14.01,2013-08-31 15:44:00,
2013-08-31 10:49:00,77.7,73.2,29.79,ESE,109,3.0,3.0,86,0.00,,BKN250,0.00,VWS V14.01,2013-08-31 15:49:00,
2013-08-31 10:54:00,77.7,73.2,29.79,ESE,106,1.0,3.0,86,0.00,,BKN250,0.00,VWS V14.01,2013-08-31 15:54:00,
2013-08-31 10:59:00,77.9,73.4,29.79,ESE,106,0.0,1.0,86,0.00,,BKN250,0.00,VWS V14.01,2013-08-31 15:59:00,
2013-08-31 11:04:00,78.2,73.7,29.78,ESE,106,0.0,0.0,86,0.00,,BKN250,0.00,VWS V14.01,2013-08-31 16:04:00,
2013-08-31 11:09:00,78.5,74.0,29.78,ESE,106,0.0,0.0,86,0.00,,BKN250,0.00,VWS V14.01,2013-08-31 16:09:00,
2013-08-31 11:14:00,78.6,73.7,29.78,East,100,2.0,2.0,85,0.00,,BKN250,0.00,VWS V14.01,2013-08-31 16:14:00,
2013-08-31 11:19:00,78.5,73.6,29.78,East,100,1.0,3.0,85,0.00,,BKN250,0.00,VWS V14.01,2013-08-31 16:19:00,
2013-08-31 11:24:00,78.4,73.5,29.77,SE,127,2.0,2.0,85,0.00,,BKN250,0.00,VWS V14.01,2013-08-31 16:24:00,
2013-08-31 11:29:00,78.4,73.5,29.77,SE,125,0.0,0.0,85,0.00,,BKN250,0.00,VWS V14.01,2013-08-31 16:29:00,
2013-08-31 11:34:00,78.5,73.3,29.77,SE,125,0.0,0.0,84,0.00,,BKN250,0.00,VWS V14.01,2013-08-31 16:34:00,
2013-08-31 11:39:00,78.5,73.3,29.77,SE,134,0.0,0.0,84,0.00,,BKN250,0.00,VWS V14.01,2013-08-31 16:39:00,
2013-08-31 11:44:00,78.5,73.3,29.77,SE,133,0.0,0.0,84,0.00,,BKN250,0.00,VWS V14.01,2013-08-31 16:44:00,
2013-08-31 11:49:00,78.5,73.3,29.76,SE,133,0.0,0.0,84,0.00,,BKN250,0.00,VWS V14.01,2013-08-31 16:49:00,
2013-08-31 11:54:00,78.5,73.3,29.76,SE,133,0.0,0.0,84,0.00,,BKN250,0.00,VWS V14.01,2013-08-31 16:54:00,
2013-08-31 11:59:00,78.5,72.9,29.76,SE,133,0.0,0.0,83,0.00,,BKN250,0.00,VWS V14.01,2013-08-31 16:59:00,
2013-08-31 12:04:00,78.6,73.4,29.76,SE,133,0.0,0.0,84,0.00,,BKN250,0.00,VWS V14.01,2013-08-31 17:04:00,
2013-08-31 12:09:00,78.9,73.3,29.76,SE,133,0.0,0.0,83,0.00,,BKN250,0.00,VWS V14.01,2013-08-31 17:09:00,
2013-08-31 12:14:00,79.3,73.3,29.76,SE,125,0.0,3.0,82,0.00,,BKN250,0.00,VWS V14.01,2013-08-31 17:14:00,
2013-08-31 12:19:00,79.4,73.8,29.76,East,92,0.0,1.0,83,0.00,,BKN250,0.00,VWS V14.01,2013-08-31 17:19:00,
2013-08-31 12:33:00,79.9,73.9,29.76,ENE,78,0.0,2.0,82,0.00,,BKN250,0.00,VWS V14.01,2013-08-31 17:33:00,
2013-08-31 12:42:00,80.0,73.7,29.76,NNE,18,0.0,2.0,81,0.00,,BKN250,0.00,VWS V14.01,2013-08-31 17:42:00,
2013-08-31 12:47:00,80.0,73.7,29.76,North,354,4.0,5.0,81,0.00,,BKN250,0.00,VWS V14.01,2013-08-31 17:47:00,
2013-08-31 12:52:00,80.0,74.0,29.76,North,354,0.0,1.0,82,0.00,,BKN250,0.00,VWS V14.01,2013-08-31 17:52:00,
2013-08-31 12:57:00,80.1,74.1,29.77,NNE,14,3.0,3.0,82,0.00,,BKN250,0.00,VWS V14.01,2013-08-31 17:57:00,
2013-08-31 13:02:00,80.1,74.1,29.77,NNE,14,0.0,3.0,82,0.00,,BKN250,0.00,VWS V14.01,2013-08-31 18:02:00,
2013-08-31 13:07:00,80.2,73.8,29.76,North,8,1.0,3.0,81,0.00,,BKN250,0.00,VWS V14.01,2013-08-31 18:07:00,
2013-08-31 13:12:00,80.4,73.3,29.76,North,11,3.0,5.0,79,0.00,,BKN250,0.00,VWS V14.01,2013-08-31 18:12:00,
2013-08-31 13:17:00,80.7,73.2,29.77,North,8,3.0,3.0,78,0.00,,BKN250,0.00,VWS V14.01,2013-08-31 18:17:00,
2013-08-31 13:22:00,80.9,73.4,29.77,NNE,12,4.0,5.0,78,0.00,,BKN250,0.00,VWS V14.01,2013-08-31 18:22:00,
2013-08-31 13:27:00,81.2,73.7,29.77,NNE,23,2.0,6.0,78,0.00,,BKN250,0.00,VWS V14.01,2013-08-31 18:27:00,
2013-08-31 13:32:00,81.5,74.0,29.77,NNE,19,0.0,3.0,78,0.00,,BKN250,0.00,VWS V14.01,2013-08-31 18:32:00,
2013-08-31 13:37:00,81.8,73.5,29.76,NNE,21,2.0,3.0,76,0.00,,BKN250,0.00,VWS V14.01,2013-08-31 18:37:00,
2013-08-31 13:42:00,81.9,73.6,29.76,North,359,2.0,2.0,76,0.00,,BKN250,0.00,VWS V14.01,2013-08-31 18:42:00,
2013-08-31 13:47:00,82.1,73.0,29.76,North,4,2.0,4.0,74,0.00,,BKN250,0.00,VWS V14.01,2013-08-31 18:47:00,
2013-08-31 13:52:00,82.6,73.9,29.76,North,4,0.0,3.0,75,0.00,,BKN250,0.00,VWS V14.01,2013-08-31 18:52:00,
2013-08-31 13:57:00,83.0,73.5,29.77,North,4,0.0,3.0,73,0.00,,BKN250,0.00,VWS V14.01,2013-08-31 18:57:00,
2013-08-31 14:02:00,83.5,73.5,29.76,North,4,0.0,1.0,72,0.00,,BKN250,0.00,VWS V14.01,2013-08-31 19:02:00,
2013-08-31 14:07:00,83.3,73.3,29.76,NNE,24,0.0,2.0,72,0.00,,BKN250,0.00,VWS V14.01,2013-08-31 19:07:00,
2013-08-31 14:12:00,83.3,73.3,29.76,NNE,18,0.0,3.0,72,0.00,,BKN250,0.00,VWS V14.01,2013-08-31 19:12:00,
2013-08-31 14:17:00,83.4,73.0,29.76,NNE,26,0.0,5.0,71,0.00,,BKN250,0.00,VWS V14.01,2013-08-31 19:17:00,
2013-08-31 14:22:00,83.4,73.4,29.76,NNE,21,0.0,2.0,72,0.00,,BKN250,0.00,VWS V14.01,2013-08-31 19:22:00,
2013-08-31 14:27:00,83.6,73.2,29.76,NNE,22,1.0,2.0,71,0.00,,BKN250,0.00,VWS V14.01,2013-08-31 19:27:00,
2013-08-31 14:32:00,83.7,73.3,29.76,East,94,1.0,1.0,71,0.00,,BKN250,0.00,VWS V14.01,2013-08-31 19:32:00,
2013-08-31 14:37:00,83.8,73.4,29.76,East,86,0.0,2.0,71,0.00,,BKN250,0.00,VWS V14.01,2013-08-31 19:37:00,
2013-08-31 14:42:00,83.9,73.1,29.75,East,86,0.0,1.0,70,0.00,,SCT250,0.00,VWS V14.01,2013-08-31 19:42:00,
2013-08-31 14:47:00,84.0,72.7,29.75,SE,125,0.0,2.0,69,0.00,,SCT250,0.00,VWS V14.01,2013-08-31 19:47:00,
2013-08-31 14:52:00,84.1,74.1,29.75,SE,124,0.0,2.0,72,0.00,,SCT250,0.00,VWS V14.01,2013-08-31 19:52:00,
2013-08-31 14:57:00,84.0,73.6,29.75,SW,218,1.0,2.0,71,0.00,,SCT250,0.00,VWS V14.01,2013-08-31 19:57:00,
2013-08-31 15:02:00,84.1,73.7,29.75,East,83,5.0,5.0,71,0.00,,SCT250,0.00,VWS V14.01,2013-08-31 20:02:00,
2013-08-31 15:07:00,84.4,74.0,29.75,ESE,112,4.0,5.0,71,0.00,,SCT250,0.00,VWS V14.01,2013-08-31 20:07:00,
2013-08-31 15:12:00,84.4,73.6,29.75,SE,136,0.0,2.0,70,0.00,,SCT250,0.00,VWS V14.01,2013-08-31 20:12:00,
2013-08-31 15:17:00,84.6,74.2,29.75,East,94,3.0,3.0,71,0.00,,SCT250,0.00,VWS V14.01,2013-08-31 20:17:00,
2013-08-31 15:22:00,84.6,73.7,29.75,ESE,106,0.0,1.0,70,0.00,,SCT250,0.00,VWS V14.01,2013-08-31 20:22:00,
2013-08-31 15:27:00,85.0,74.6,29.75,SE,141,3.0,3.0,71,0.00,,SCT250,0.00,VWS V14.01,2013-08-31 20:27:00,
2013-08-31 15:32:00,85.3,74.0,29.75,SSE,162,0.0,3.0,69,0.00,,SCT250,0.00,VWS V14.01,2013-08-31 20:32:00,
2013-08-31 15:37:00,85.2,74.3,29.75,SSE,149,2.0,4.0,70,0.00,,SCT250,0.00,VWS V14.01,2013-08-31 20:37:00,
2013-08-31 15:42:00,85.0,74.6,29.75,SSE,149,2.0,4.0,71,0.00,,SCT250,0.00,VWS V14.01,2013-08-31 20:42:00,
2013-08-31 15:48:00,85.0,74.6,29.75,SSE,155,1.0,3.0,71,0.00,,SCT250,0.00,VWS V14.01,2013-08-31 20:48:00,
2013-08-31 15:53:00,84.8,74.4,29.74,South,170,4.0,4.0,71,0.00,,SCT250,0.00,VWS V14.01,2013-08-31 20:53:00,
2013-08-31 15:58:00,84.5,74.5,29.74,SSE,158,3.0,3.0,72,0.00,,SCT250,0.00,VWS V14.01,2013-08-31 20:58:00,
2013-08-31 16:03:00,84.5,74.1,29.74,South,172,4.0,5.0,71,0.00,,SCT250,0.00,VWS V14.01,2013-08-31 21:03:00,
2013-08-31 16:08:00,84.7,74.3,29.74,South,183,4.0,4.0,71,0.00,,SCT250,0.00,VWS V14.01,2013-08-31 21:08:00,
2013-08-31 16:13:00,84.8,73.9,29.74,South,179,4.0,7.0,70,0.00,,SCT250,0.00,VWS V14.01,2013-08-31 21:13:00,
2013-08-31 16:18:00,84.9,74.0,29.74,South,170,0.0,3.0,70,0.00,,SCT250,0.00,VWS V14.01,2013-08-31 21:18:00,
2013-08-31 16:23:00,85.1,73.8,29.74,SE,134,5.0,6.0,69,0.00,,SCT250,0.00,VWS V14.01,2013-08-31 21:23:00,
2013-08-31 16:28:00,85.0,73.7,29.74,SSE,155,1.0,5.0,69,0.00,,SCT250,0.00,VWS V14.01,2013-08-31 21:28:00,
2013-08-31 16:33:00,84.9,72.7,29.74,SSE,168,0.0,1.0,67,0.00,,SCT250,0.00,VWS V14.01,2013-08-31 21:33:00,
2013-08-31 16:38:00,85.3,73.1,29.74,SSE,160,5.0,6.0,67,0.00,,SCT250,0.00,VWS V14.01,2013-08-31 21:38:00,
2013-08-31 16:43:00,85.7,73.9,29.73,SSE,164,2.0,5.0,68,0.00,,SCT250,0.00,VWS V14.01,2013-08-31 21:43:00,
2013-08-31 16:48:00,85.8,73.1,29.73,SE,143,2.0,5.0,66,0.00,,SCT250,0.00,VWS V14.01,2013-08-31 21:48:00,
2013-08-31 16:53:00,85.9,73.2,29.73,SSE,157,4.0,7.0,66,0.00,,SCT250,0.00,VWS V14.01,2013-08-31 21:53:00,
2013-08-31 17:00:00,85.7,72.6,29.73,SSE,160,4.0,5.0,65,0.00,,SCT250,0.00,VWS V14.01,2013-08-31 22:00:00,
2013-08-31 17:05:00,85.6,72.5,29.73,SE,135,1.0,4.0,65,0.00,,SCT250,0.00,VWS V14.01,2013-08-31 22:05:00,
2013-08-31 17:10:00,85.5,71.9,29.73,SE,131,3.0,6.0,64,0.00,,SCT250,0.00,VWS V14.01,2013-08-31 22:10:00,
2013-08-31 17:15:00,85.4,69.9,29.73,South,185,2.0,3.0,60,0.00,,SCT250,0.00,VWS V14.01,2013-08-31 22:15:00,
2013-08-31 17:20:00,85.4,70.9,29.73,SSE,151,1.0,4.0,62,0.00,,SCT250,0.00,VWS V14.01,2013-08-31 22:20:00,
2013-08-31 17:25:00,85.4,70.9,29.73,South,173,4.0,4.0,62,0.00,,SCT250,0.00,VWS V14.01,2013-08-31 22:25:00,
2013-08-31 17:30:00,85.7,70.7,29.72,SSE,168,0.0,2.0,61,0.00,,SCT250,0.00,VWS V14.01,2013-08-31 22:30:00,
2013-08-31 17:35:00,85.9,70.4,29.72,South,176,3.0,5.0,60,0.00,,SCT250,0.00,VWS V14.01,2013-08-31 22:35:00,
2013-08-31 17:40:00,86.2,68.7,29.72,South,174,2.0,6.0,56,0.00,,SCT250,0.00,VWS V14.01,2013-08-31 22:40:00,
2013-08-31 17:45:00,86.2,68.7,29.72,SSE,149,4.0,5.0,56,0.00,,FEW250,0.00,VWS V14.01,2013-08-31 22:45:00,
2013-08-31 17:50:00,86.2,69.2,29.72,South,172,0.0,3.0,57,0.00,,FEW250,0.00,VWS V14.01,2013-08-31 22:50:00,
2013-08-31 17:55:00,86.2,68.7,29.72,South,180,4.0,4.0,56,0.00,,FEW250,0.00,VWS V14.01,2013-08-31 22:55:00,
2013-08-31 18:00:00,86.2,68.2,29.72,SSE,162,3.0,5.0,55,0.00,,FEW250,0.00,VWS V14.01,2013-08-31 23:00:00,
2013-08-31 18:05:00,86.1,67.5,29.72,South,186,3.0,4.0,54,0.00,,FEW250,0.00,VWS V14.01,2013-08-31 23:05:00,
2013-08-31 18:10:00,86.1,68.6,29.72,South,183,1.0,3.0,56,0.00,,FEW250,0.00,VWS V14.01,2013-08-31 23:10:00,
2013-08-31 18:15:00,86.1,68.1,29.72,South,183,0.0,3.0,55,0.00,,FEW250,0.00,VWS V14.01,2013-08-31 23:15:00,
2013-08-31 18:20:00,86.1,68.1,29.72,South,183,0.0,1.0,55,0.00,,FEW250,0.00,VWS V14.01,2013-08-31 23:20:00,
2013-08-31 18:25:00,86.0,69.0,29.72,South,183,0.0,1.0,57,0.00,,FEW250,0.00,VWS V14.01,2013-08-31 23:25:00,
2013-08-31 18:30:00,86.0,69.0,29.72,South,183,0.0,2.0,57,0.00,,FEW250,0.00,VWS V14.01,2013-08-31 23:30:00,
2013-08-31 18:35:00,85.9,69.4,29.72,South,183,0.0,1.0,58,0.00,,FEW250,0.00,VWS V14.01,2013-08-31 23:35:00,
2013-08-31 18:40:00,85.9,70.4,29.72,SW,219,1.0,3.0,60,0.00,,FEW250,0.00,VWS V14.01,2013-08-31 23:40:00,
2013-08-31 18:45:00,85.7,71.2,29.72,SW,219,1.0,2.0,62,0.00,,FEW250,0.00,VWS V14.01,2013-08-31 23:45:00,
2013-08-31 18:50:00,85.5,71.5,29.72,SW,219,0.0,2.0,63,0.00,,FEW250,0.00,VWS V14.01,2013-08-31 23:50:00,
2013-08-31 18:55:00,85.3,71.8,29.72,SW,219,1.0,1.0,64,0.00,,FEW250,0.00,VWS V14.01,2013-08-31 23:55:00,
2013-08-31 19:00:00,85.1,71.6,29.72,SW,219,1.0,1.0,64,0.00,,FEW250,0.00,VWS V14.01,2013-09-01 00:00:00,
2013-08-31 19:05:00,84.8,71.7,29.72,SW,219,0.0,0.0,65,0.00,,FEW250,0.00,VWS V14.01,2013-09-01 00:05:00,
2013-08-31 19:10:00,84.7,71.6,29.72,SW,219,1.0,1.0,65,0.00,,FEW250,0.00,VWS V14.01,2013-09-01 00:10:00,
2013-08-31 19:15:00,84.5,71.9,29.72,SW,219,0.0,1.0,66,0.00,,FEW250,0.00,VWS V14.01,2013-09-01 00:15:00,
2013-08-31 19:20:00,84.1,72.4,29.72,SW,219,0.0,0.0,68,0.00,,FEW250,0.00,VWS V14.01,2013-09-01 00:20:00,
2013-08-31 19:25:00,83.8,73.0,29.71,SW,219,0.0,0.0,70,0.00,,FEW250,0.00,VWS V14.01,2013-09-01 00:25:00,
2013-08-31 19:30:00,83.3,73.3,29.71,SW,219,0.0,0.0,72,0.00,,FEW250,0.00,VWS V14.01,2013-09-01 00:30:00,
2013-08-31 19:35:00,83.0,73.1,29.71,SW,219,0.0,1.0,72,0.00,,FEW250,0.00,VWS V14.01,2013-09-01 00:35:00,
2013-08-31 19:40:00,82.6,72.2,29.71,SW,219,0.0,0.0,71,0.00,,FEW250,0.00,VWS V14.01,2013-09-01 00:40:00,
2013-08-31 19:45:00,82.3,72.4,29.71,SW,219,0.0,0.0,72,0.00,,FEW250,0.00,VWS V14.01,2013-09-01 00:45:00,
2013-08-31 19:50:00,82.0,71.3,29.71,SW,219,0.0,0.0,70,0.00,,FEW250,0.00,VWS V14.01,2013-09-01 00:50:00,
2013-08-31 19:55:00,81.7,71.4,29.71,SW,219,0.0,0.0,71,0.00,,FEW250,0.00,VWS V14.01,2013-09-01 00:55:00,
2013-08-31 20:00:00,81.3,71.4,29.71,SW,219,0.0,0.0,72,0.00,,FEW250,0.00,VWS V14.01,2013-09-01 01:00:00,
2013-08-31 20:05:00,80.8,70.9,29.71,SW,219,0.0,0.0,72,0.00,,FEW250,0.00,VWS V14.01,2013-09-01 01:05:00,
2013-08-31 20:10:00,80.5,71.1,29.71,SW,219,0.0,0.0,73,0.00,,FEW250,0.00,VWS V14.01,2013-09-01 01:10:00,
2013-08-31 20:15:00,80.3,70.9,29.72,SW,219,0.0,0.0,73,0.00,,FEW250,0.00,VWS V14.01,2013-09-01 01:15:00,
2013-08-31 20:20:00,80.2,71.2,29.72,SW,219,0.0,0.0,74,0.00,,FEW250,0.00,VWS V14.01,2013-09-01 01:20:00,
2013-08-31 20:25:00,79.9,70.9,29.72,SW,219,0.0,0.0,74,0.00,,FEW250,0.00,VWS V14.01,2013-09-01 01:25:00,
2013-08-31 20:30:00,79.6,71.0,29.72,SW,219,0.0,0.0,75,0.00,,FEW250,0.00,VWS V14.01,2013-09-01 01:30:00,
2013-08-31 20:35:00,79.4,70.8,29.72,SW,219,0.0,0.0,75,0.00,,FEW250,0.00,VWS V14.01,2013-09-01 01:35:00,
2013-08-31 20:40:00,79.3,70.7,29.72,SW,219,0.0,0.0,75,0.00,,SCT250,0.00,VWS V14.01,2013-09-01 01:40:00,
2013-08-31 20:45:00,79.2,70.6,29.72,SW,219,0.0,0.0,75,0.00,,SCT250,0.00,VWS V14.01,2013-09-01 01:45:00,
2013-08-31 20:50:00,79.1,70.9,29.72,SW,219,0.0,0.0,76,0.00,,SCT250,0.00,VWS V14.01,2013-09-01 01:50:00,
2013-08-31 20:55:00,79.0,70.8,29.73,SW,219,0.0,0.0,76,0.00,,SCT250,0.00,VWS V14.01,2013-09-01 01:55:00,
2013-08-31 21:00:00,78.9,71.1,29.73,SW,219,0.0,0.0,77,0.00,,SCT250,0.00,VWS V14.01,2013-09-01 02:00:00,
2013-08-31 21:05:00,78.8,71.0,29.73,SW,219,0.0,1.0,77,0.00,,SCT250,0.00,VWS V14.01,2013-09-01 02:05:00,
2013-08-31 21:10:00,78.9,71.5,29.73,SW,219,1.0,2.0,78,0.00,,SCT250,0.00,VWS V14.01,2013-09-01 02:10:00,
2013-08-31 21:15:00,78.9,71.5,29.73,SW,219,0.0,1.0,78,0.00,,SCT250,0.00,VWS V14.01,2013-09-01 02:15:00,
2013-08-31 21:21:00,78.8,71.4,29.74,SW,219,0.0,0.0,78,0.00,,SCT250,0.00,VWS V14.01,2013-09-01 02:21:00,
2013-08-31 21:26:00,78.5,71.4,29.74,SW,219,0.0,0.0,79,0.00,,SCT250,0.00,VWS V14.01,2013-09-01 02:26:00,
2013-08-31 21:31:00,78.3,71.6,29.74,SW,219,0.0,0.0,80,0.00,,SCT250,0.00,VWS V14.01,2013-09-01 02:31:00,
2013-08-31 21:36:00,78.0,71.3,29.74,SW,219,0.0,0.0,80,0.00,,SCT250,0.00,VWS V14.01,2013-09-01 02:36:00,
2013-08-31 21:41:00,77.9,71.2,29.74,SW,219,0.0,0.0,80,0.00,,SCT250,0.00,VWS V14.01,2013-09-01 02:41:00,
2013-08-31 21:46:00,77.8,71.1,29.74,SW,219,0.0,0.0,80,0.00,,SCT250,0.00,VWS V14.01,2013-09-01 02:46:00,
2013-08-31 21:51:00,77.7,71.4,29.74,SW,219,0.0,1.0,81,0.00,,SCT250,0.00,VWS V14.01,2013-09-01 02:51:00,
2013-08-31 21:56:00,77.7,71.4,29.74,SW,219,0.0,0.0,81,0.00,,SCT250,0.00,VWS V14.01,2013-09-01 02:56:00,
2013-08-31 22:01:00,77.6,71.3,29.74,SW,219,0.0,0.0,81,0.00,,SCT250,0.00,VWS V14.01,2013-09-01 03:01:00,
2013-08-31 22:06:00,77.5,71.2,29.75,SW,219,0.0,0.0,81,0.00,,SCT250,0.00,VWS V14.01,2013-09-01 03:06:00,
2013-08-31 22:11:00,77.3,71.0,29.75,SW,219,0.0,1.0,81,0.00,,SCT250,0.00,VWS V14.01,2013-09-01 03:11:00,
2013-08-31 22:16:00,77.3,71.0,29.75,SW,219,0.0,0.0,81,0.00,,SCT250,0.00,VWS V14.01,2013-09-01 03:16:00,
2013-08-31 22:21:00,77.1,71.2,29.74,SW,219,0.0,0.0,82,0.00,,SCT250,0.00,VWS V14.01,2013-09-01 03:21:00,
2013-08-31 22:26:00,76.9,71.0,29.75,SW,219,0.0,0.0,82,0.00,,SCT250,0.00,VWS V14.01,2013-09-01 03:26:00,
2013-08-31 22:31:00,76.6,71.1,29.75,SW,219,0.0,0.0,83,0.00,,SCT250,0.00,VWS V14.01,2013-09-01 03:31:00,
2013-08-31 22:36:00,76.4,71.2,29.75,SW,219,0.0,0.0,84,0.00,,SCT250,0.00,VWS V14.01,2013-09-01 03:36:00,
2013-08-31 22:41:00,76.3,71.1,29.75,SW,219,0.0,0.0,84,0.00,,SCT250,0.00,VWS V14.01,2013-09-01 03:41:00,
2013-08-31 22:46:00,76.2,71.4,29.75,SW,219,0.0,1.0,85,0.00,,SCT250,0.00,VWS V14.01,2013-09-01 03:46:00,
2013-08-31 22:51:00,76.2,71.4,29.75,SW,219,1.0,1.0,85,0.00,,SCT250,0.00,VWS V14.01,2013-09-01 03:51:00,
2013-08-31 22:56:00,76.2,71.7,29.75,SW,218,3.0,3.0,86,0.00,,SCT250,0.00,VWS V14.01,2013-09-01 03:56:00,
2013-08-31 23:01:00,76.2,71.7,29.75,SW,218,2.0,3.0,86,0.00,,SCT250,0.00,VWS V14.01,2013-09-01 04:01:00,
2013-08-31 23:02:00,76.2,71.7,29.74,SW,218,2.0,3.0,86,0.00,,SCT250,0.00,VWS V14.01,2013-09-01 04:02:00,
2013-08-31 23:03:00,76.2,71.7,29.74,SW,218,2.0,3.0,86,0.00,,SCT250,0.00,VWS V14.01,2013-09-01 04:03:00,
2013-08-31 23:08:00,76.0,71.5,29.74,SW,218,0.0,1.0,86,0.00,,SCT250,0.00,VWS V14.01,2013-09-01 04:08:00,
2013-08-31 23:13:00,75.8,71.0,29.74,SW,218,0.0,1.0,85,0.00,,SCT250,0.00,VWS V14.01,2013-09-01 04:13:00,
2013-08-31 23:18:00,75.7,70.9,29.74,SW,218,1.0,1.0,85,0.00,,SCT250,0.00,VWS V14.01,2013-09-01 04:18:00,
2013-08-31 23:23:00,75.8,71.0,29.74,SW,218,0.0,0.0,85,0.00,,SCT250,0.00,VWS V14.01,2013-09-01 04:23:00,
2013-08-31 23:28:00,75.8,71.0,29.74,SW,218,1.0,2.0,85,0.00,,SCT250,0.00,VWS V14.01,2013-09-01 04:28:00,
2013-08-31 23:30:00,75.8,71.0,29.74,SW,218,1.0,2.0,85,0.00,,SCT250,0.00,VWS V14.01,2013-09-01 04:30:00,
2013-08-31 23:33:00,75.8,71.0,29.74,SW,218,0.0,1.0,85,0.00,,SCT250,0.00,VWS V14.01,2013-09-01 04:33:00,
2013-08-31 23:38:00,75.7,71.2,29.74,SW,218,0.0,2.0,86,0.00,,SCT250,0.00,VWS V14.01,2013-09-01 04:38:00,
2013-08-31 23:43:00,75.6,71.1,29.74,SW,218,2.0,3.0,86,0.00,,SCT250,0.00,VWS V14.01,2013-09-01 04:43:00,
2013-08-31 23:48:00,75.5,71.0,29.73,SW,218,0.0,1.0,86,0.00,,SCT250,0.00,VWS V14.01,2013-09-01 04:48:00,
2013-08-31 23:53:00,75.5,71.0,29.73,SW,218,1.0,2.0,86,0.00,,SCT250,0.00,VWS V14.01,2013-09-01 04:53:00,
2013-08-31 23:58:00,75.5,71.0,29.73,SW,218,2.0,3.0,86,0.00,,SCT250,0.00,VWS V14.01,2013-09-01 04:58:00,